Location: Conflandey
(47.7287°N, 6.0456°E)
Time: 03:12:43
(UTC+00:00)

Cosmos 1408 - Pass Details

Date: 24 October 2021
Orbit: 465 x 490 km, 82.6° (Epoch: 15 November)

Event Time Altitude Azimuth Distance (km) Brightness Sun altitude
Rises 17:28:29 0° 3° (N) 2,538 6.1 -10.3°
Reaches altitude 10° 17:31:01 10° 21° (NNE) 1,649 5.0 -10.7°
Maximum altitude 17:33:44 20° 70° (ENE) 1,145 3.8 -11.2°
Enters shadow 17:35:04 17° 100° (E) 1,274 4.1 -11.4°
